Time,TemperatureF,DewpointF,PressureIn,WindDirection,WindDirectionDegrees,WindSpeedMPH,WindSpeedGustMPH,Humidity,HourlyPrecipIn,Conditions,Clouds,dailyrainin,SoftwareType,DateUTC
2015-05-25 00:03:00,67.0,-99.9,30.26,North,-9999,-999.9,-999.0,-999,-99.99,,,-99.99,,2015-05-25 04:03:00,
2015-05-25 00:11:00,67.0,-99.9,30.26,North,-9999,-999.9,-999.0,-999,-99.99,,,-99.99,,2015-05-25 04:11:00,
2015-05-25 00:21:00,67.0,-99.9,30.25,North,-9999,-999.9,-999.0,-999,-99.99,,,-99.99,,2015-05-25 04:21:00,
2015-05-25 00:31:00,66.0,-99.9,30.26,North,-9999,-999.9,-999.0,-999,-99.99,,,-99.99,,2015-05-25 04:31:00,
2015-05-25 00:41:00,65.0,-99.9,30.26,North,-9999,-999.9,-999.0,-999,-99.99,,,-99.99,,2015-05-25 04:41:00,
2015-05-25 01:43:00,64.0,-99.9,30.26,North,-9999,-999.9,-999.0,-999,-99.99,,,-99.99,,2015-05-25 05:43:00,
2015-05-25 02:11:00,63.0,-99.9,30.25,North,-9999,-999.9,-999.0,-999,-99.99,,,-99.99,,2015-05-25 06:11:00,
2015-05-25 02:32:00,63.0,-99.9,30.25,North,-9999,-999.9,-999.0,-999,-99.99,,,-99.99,,2015-05-25 06:32:00,
2015-05-25 03:11:00,62.0,-99.9,30.25,North,-9999,-999.9,-999.0,-999,-99.99,,,-99.99,,2015-05-25 07:11:00,
2015-05-25 04:02:00,61.0,-99.9,30.25,North,-9999,-999.9,-999.0,-999,-99.99,,,-99.99,,2015-05-25 08:02:00,
2015-05-25 04:42:00,61.0,-99.9,30.26,North,-9999,-999.9,-999.0,-999,-99.99,,,-99.99,,2015-05-25 08:42:00,
2015-05-25 05:02:00,61.0,-99.9,30.26,North,-9999,-999.9,-999.0,-999,-99.99,,,-99.99,,2015-05-25 09:02:00,
2015-05-25 05:31:00,61.0,-99.9,30.26,North,-9999,-999.9,-999.0,-999,-99.99,,,-99.99,,2015-05-25 09:31:00,
2015-05-25 05:42:00,61.0,-99.9,30.26,North,-9999,-999.9,-999.0,-999,-99.99,,,-99.99,,2015-05-25 09:42:00,
2015-05-25 05:52:00,61.0,-99.9,30.26,North,-9999,-999.9,-999.0,-999,-99.99,,,-99.99,,2015-05-25 09:52:00,
2015-05-25 06:03:00,61.0,-99.9,30.26,North,-9999,-999.9,-999.0,-999,-99.99,,,-99.99,,2015-05-25 10:03:00,
2015-05-25 06:42:00,62.0,-99.9,30.27,North,-9999,-999.9,-999.0,-999,-99.99,,,-99.99,,2015-05-25 10:42:00,
2015-05-25 07:02:00,63.0,-99.9,30.27,North,-9999,-999.9,-999.0,-999,-99.99,,,-99.99,,2015-05-25 11:02:00,
2015-05-25 08:02:00,64.0,-99.9,30.27,North,-9999,-999.9,-999.0,-999,-99.99,,,-99.99,,2015-05-25 12:02:00,
2015-05-25 08:43:00,66.0,-99.9,30.27,North,-9999,-999.9,-999.0,-999,-99.99,,,-99.99,,2015-05-25 12:43:00,
2015-05-25 09:02:00,67.0,-99.9,30.27,North,-9999,-999.9,-999.0,-999,-99.99,,,-99.99,,2015-05-25 13:02:00,
2015-05-25 09:11:00,67.0,-99.9,30.27,North,-9999,-999.9,-999.0,-999,-99.99,,,-99.99,,2015-05-25 13:11:00,
2015-05-25 09:21:00,67.0,-99.9,30.27,North,-9999,-999.9,-999.0,-999,-99.99,,,-99.99,,2015-05-25 13:21:00,
2015-05-25 09:32:00,68.0,-99.9,30.27,North,-9999,-999.9,-999.0,-999,-99.99,,,-99.99,,2015-05-25 13:32:00,
2015-05-25 10:02:00,72.0,-99.9,30.27,North,-9999,-999.9,-999.0,-999,-99.99,,,-99.99,,2015-05-25 14:02:00,
2015-05-25 10:11:00,73.0,-99.9,30.26,North,-9999,-999.9,-999.0,-999,-99.99,,,-99.99,,2015-05-25 14:11:00,
2015-05-25 10:22:00,73.0,-99.9,30.26,North,-9999,-999.9,-999.0,-999,-99.99,,,-99.99,,2015-05-25 14:22:00,
2015-05-25 10:32:00,75.0,-99.9,30.26,North,-9999,-999.9,-999.0,-999,-99.99,,,-99.99,,2015-05-25 14:32:00,
2015-05-25 10:52:00,78.0,-99.9,30.25,North,-9999,-999.9,-999.0,-999,-99.99,,,-99.99,,2015-05-25 14:52:00,
2015-05-25 11:01:00,77.0,-99.9,30.25,North,-9999,-999.9,-999.0,-999,-99.99,,,-99.99,,2015-05-25 15:01:00,
2015-05-25 11:21:00,78.0,-99.9,30.24,North,-9999,-999.9,-999.0,-999,-99.99,,,-99.99,,2015-05-25 15:21:00,
2015-05-25 11:32:00,78.0,-99.9,30.24,North,-9999,-999.9,-999.0,-999,-99.99,,,-99.99,,2015-05-25 15:32:00,
2015-05-25 12:02:00,80.0,-99.9,30.24,North,-9999,-999.9,-999.0,-999,-99.99,,,-99.99,,2015-05-25 16:02:00,
2015-05-25 12:32:00,82.0,-99.9,30.22,North,-9999,-999.9,-999.0,-999,-99.99,,,-99.99,,2015-05-25 16:32:00,
2015-05-25 13:03:00,82.0,-99.9,30.22,North,-9999,-999.9,-999.0,-999,-99.99,,,-99.99,,2015-05-25 17:03:00,
2015-05-25 13:12:00,83.0,-99.9,30.22,North,-9999,-999.9,-999.0,-999,-99.99,,,-99.99,,2015-05-25 17:12:00,
2015-05-25 15:02:00,86.0,-99.9,30.18,North,-9999,-999.9,-999.0,-999,-99.99,,,-99.99,,2015-05-25 19:02:00,
2015-05-25 15:22:00,86.0,-99.9,30.17,North,-9999,-999.9,-999.0,-999,-99.99,,,-99.99,,2015-05-25 19:22:00,
2015-05-25 15:33:00,86.0,-99.9,30.16,North,-9999,-999.9,-999.0,-999,-99.99,,,-99.99,,2015-05-25 19:33:00,
2015-05-25 15:43:00,88.0,-99.9,30.16,North,-9999,-999.9,-999.0,-999,-99.99,,,-99.99,,2015-05-25 19:43:00,
2015-05-25 16:03:00,87.0,-99.9,30.16,North,-9999,-999.9,-999.0,-999,-99.99,,,-99.99,,2015-05-25 20:03:00,
2015-05-25 16:42:00,88.0,-99.9,30.15,North,-9999,-999.9,-999.0,-999,-99.99,,,-99.99,,2015-05-25 20:42:00,
2015-05-25 17:22:00,87.0,-99.9,30.15,North,-9999,-999.9,-999.0,-999,-99.99,,,-99.99,,2015-05-25 21:22:00,
2015-05-25 17:32:00,88.0,-99.9,30.15,North,-9999,-999.9,-999.0,-999,-99.99,,,-99.99,,2015-05-25 21:32:00,
2015-05-25 18:02:00,86.0,-99.9,30.15,North,-9999,-999.9,-999.0,-999,-99.99,,,-99.99,,2015-05-25 22:02:00,
2015-05-25 19:02:00,84.0,-99.9,30.15,North,-9999,-999.9,-999.0,-999,-99.99,,,-99.99,,2015-05-25 23:02:00,
2015-05-25 20:11:00,81.0,-99.9,30.16,North,-9999,-999.9,-999.0,-999,-99.99,,,-99.99,,2015-05-26 00:11:00,
2015-05-25 20:21:00,81.0,-99.9,30.16,North,-9999,-999.9,-999.0,-999,-99.99,,,-99.99,,2015-05-26 00:21:00,
2015-05-25 20:32:00,81.0,-99.9,30.16,North,-9999,-999.9,-999.0,-999,-99.99,,,-99.99,,2015-05-26 00:32:00,
2015-05-25 20:42:00,80.0,-99.9,30.16,North,-9999,-999.9,-999.0,-999,-99.99,,,-99.99,,2015-05-26 00:42:00,
2015-05-25 21:01:00,79.0,-99.9,30.16,North,-9999,-999.9,-999.0,-999,-99.99,,,-99.99,,2015-05-26 01:01:00,
2015-05-25 21:11:00,79.0,-99.9,30.17,North,-9999,-999.9,-999.0,-999,-99.99,,,-99.99,,2015-05-26 01:11:00,
2015-05-25 21:21:00,78.0,-99.9,30.17,North,-9999,-999.9,-999.0,-999,-99.99,,,-99.99,,2015-05-26 01:21:00,
2015-05-25 21:32:00,78.0,-99.9,30.17,North,-9999,-999.9,-999.0,-999,-99.99,,,-99.99,,2015-05-26 01:32:00,
2015-05-25 21:42:00,77.0,-99.9,30.17,North,-9999,-999.9,-999.0,-999,-99.99,,,-99.99,,2015-05-26 01:42:00,